Погода в Кривцове

Россия / Белгородская область     50°47′49″N   36°45′15″E
темп.,
°C
ветер,
м/с
пор.,
м/с
влажн.,
%
обл.,
%
осадки,
мм/ч
давл.,
гПа
погр.,
м
19 апреля, пн
пн1900:00+6в2293100 2.6 1017245
03:00+6св1193100 2.6 1017125
06:00+6в239286 0.1 101683
09:00+8вюв348598 0.6 1016263
12:00+11в236890 1.0 1015896
15:00+12св2266100 3.0 1015819
18:00+11всв357478 1.8 1014488
21:00+8всв358855 2.4 1014106
20 апреля, вт
вт2000:00+7всв359147 0.1 101485
03:00+6всв3794100 0.2 1012150
06:00+6всв4995100 0.1 1011226
09:00+9в61084100 0.5 1010615
12:00+10св6987100 0.3 1007740
15:00+9св71393100 3.4 1004837
18:00+8ссв81394100 5.9 1000740
21:00+7с71092100 10.5 1000562
21 апреля, ср
ср2100:00+6сз5891100 0.0 1002820
03:00+6з61193100 0.0 1005741
06:00+6з5109196 0.0 1007658
09:00+8з577287 0.1 10101067
12:00+10зюз566890 0.1 10121052
15:00+12зюз686285 0.4 10121481
18:00+11зюз36638 0.4 10141258
21:00+8з348015 0.4 101676
22 апреля, чт
чт2200:00+6зюз227973 0.0 101716
03:00+5ю35835 0.0 101871
06:00+5ююз35885 0.0 101889
09:00+11ююз466874 0.0 1019462
12:00+13ююз456042 0.1 10191265
15:00+13ююз456510 0.7 1019977
18:00+13ю466748 0.9 1019479
21:00+10ю338124 1.3 102039
23 апреля, пт
пт2300:00+10ю2282100 0.0 102038
03:00+9ю238353 0.1 101943
06:00+9ю3485100 0.0 101968
09:00+12ююв357390 0.0 1019312
12:00+16ююз564851 0.3 10182110
15:00+16ююз585564 0.6 10161264
18:00+14ююз486158 0.1 1015400
21:00+10ю41280100 0.3 1016276